Location: Mohawk View
(42.7837°N, 73.7885°W)
Time: 16:13:27
(UTC+00:00)

Cosmos 2123 Rocket - Pass Details

Date: 17 June 2021
Orbit: 961 x 992 km, 82.9° (Epoch: 02 August)

Event Time Altitude Azimuth Distance (km) Brightness Sun altitude
Exits shadow 02:48:02 23° 178° (S) 1,951 5.1 -17.6°
Maximum altitude 02:52:08 78° 95° (E) 1,015 4.0 -17.9°
Drops below altitude 10° 02:58:28 10° 10° (N) 2,763 7.1 -18.5°
Sets 03:01:00 0° 10° (N) 3,717 7.9 -18.7°
